Location: Erenk�y
(36.9279°N, 30.6678°E)
Time: 10:35:39
(UTC+00:00)

Daily predictions for brighter satellites

Satellite Brightness Start Highest point End
(mag) Time Altitude Azimuth Time Altitude Azimuth Time Altitude Azimuth
Cosmos 2154 Rocket 4.0 15:25:00 10° S 15:31:16 76° E 15:37:31 10° N
USA 32 4.3 15:35:38 10° SSE 15:40:35 46° E 15:45:33 10° NNE
Cosmos 1242 Rocket 4.1 15:40:24 10° SSW 15:43:39 37° WNW 15:46:58 10° N
Atlas Centaur 2 3.6 15:40:20 10° SSW 15:43:39 20° SSE 15:47:31 10° ESE
Cosmos 1602 Rocket 4.0 15:42:51 10° SSW 15:47:13 66° W 15:51:34 10° N
SMAP 3.9 15:45:30 10° S 15:50:03 57° W 15:54:39 10° NNW
DELTA 2 R/B (1) 3.7 15:44:43 10° W 15:50:18 75° N 15:55:39 11° ENE
CZ-4 R/B 2.1 15:48:30 10° SE 15:52:04 32° ENE 15:55:43 10° N
ISS -3.8 15:48:45 10° SW 15:52:07 86° NW 15:55:21 11° NE
Cosmos 2237 Rocket 2.4 15:50:10 10° N 15:55:36 48° ENE 16:01:01 10° SE
Cosmos 2366 rocket 4.5 15:51:28 10° SSE 15:57:02 37° E 16:02:40 10° NNE
NOAA 12 4.2 15:52:55 10° S 15:58:08 81° WSW 16:03:24 10° NNW
Cosmos 1953 Rocket 4.1 15:55:24 10° SSE 15:59:32 38° E 16:03:42 10° NNE
YAOGAN 6 2.5 15:56:00 10° SSE 15:59:39 69° ENE 16:03:19 10° N
ADEOS Rocket 4.2 15:55:09 10° NE 16:00:53 28° E 16:06:58 10° SSE
Cosmos 2333 Rocket 3.3 15:55:35 10° NNW 16:01:04 49° WSW 16:06:29 10° S
CZ-2D R/B 4.4 15:58:20 10° ESE 16:01:16 21° ENE 16:04:13 10° NNE
CSL-04 Rocket 4.2 15:56:23 10° SE 16:01:18 36° ENE 16:06:18 10° N
Cosmos 1300 3.7 15:58:15 10° NNW 16:01:57 50° W 16:05:38 10° S
Cosmos 1626 4.2 15:59:30 10° SW 16:02:46 29° WNW 16:06:02 10° NNW
Envisat 3.2 15:58:34 10° S 16:03:38 77° WSW 16:08:43 10° NNW
Cosmos 962 Rocket 4.4 15:57:31 10° S 16:03:38 85° E 16:09:48 10° N
COSMO-SKYMED 1 2.5 15:59:19 10° NNE 16:03:40 83° E 16:08:00 10° S
Cosmos 1758 Rocket 3.4 16:00:07 10° S 16:04:24 78° E 16:08:43 10° N
NOSS 0 Rocket 3.9 15:59:22 10° NNW 16:05:37 88° ENE 16:11:48 10° SSE
CZ-4 R/B 4.5 16:02:05 10° SSE 16:06:06 54° ENE 16:10:08 10° N
Cosmos 1455 2.6 16:13:32 10° N 16:17:06 37° E 16:20:37 10° SSE
CZ-4C R/B 3.3 16:09:41 10° NW 16:17:15 78° WSW 16:25:39 10° SSE
Okean-O 3.2 16:13:13 10° S 16:17:35 60° W 16:21:59 10° NNW
SL-16 R/B 3.0 16:12:55 10° N 16:17:43 28° ENE 16:21:39 14° ESE
Meteor 1-21 Rocket 4.3 16:12:32 10° S 16:18:06 81° W 16:23:48 10° N
Cosmos 2219 4.1 16:13:38 10° SW 16:19:02 49° WNW 16:24:31 10° N
ERBS 4.5 16:17:16 10° W 16:19:50 20° NW 16:22:25 10° N
Cosmos 1269 Rocket 4.0 16:15:54 10° NNW 16:21:12 88° WSW 16:26:29 10° SSE
Cosmos 2082 3.7 16:15:51 10° S 16:21:21 63° ESE 16:26:55 10° NNE
BREEZE-M DEB (TANK) 4.0 16:19:28 10° W 16:21:25 21° NNW 16:22:34 15° NNE
Cosmos 1328 3.8 16:22:09 10° S 16:26:05 60° E 16:30:03 10° NNE
Cosmos 1727 Rocket 4.4 16:22:27 10° N 16:28:10 38° ENE 16:33:51 10° SE
Cosmos 1825 Rocket 4.1 16:24:55 10° SSW 16:29:12 61° W 16:33:31 10° N
Cosmos 2297 Rocket 2.8 16:25:39 10° SW 16:31:12 57° WNW 16:36:46 10° NNE
SL-8 Rocket 4.0 16:26:36 10° S 16:32:55 86° W 16:39:15 10° N
FALCON 9 R/B 4.0 16:13:40 10° SW 16:33:55 40° SSE 16:38:39 20° ESE
Centaur D AC-28 4.3 16:05:28 10° SW 16:38:04 38° S 16:43:04 17° ESE
Cosmos 1980 4.1 16:32:30 10° NNW 16:38:09 67° WSW 16:43:46 10° S
Cosmos 2227 Rocket 3.1 16:38:15 10° SW 16:43:42 49° WNW 16:49:12 10° N
NOAA 11 4.1 16:39:06 10° SSE 16:44:35 86° ENE 16:50:07 10° NNW
Cosmos 2263 Rocket 4.2 16:42:40 10° SE 16:43:10 12° SE 16:43:10 12° SE
Ariane Rocket 3.3 16:42:23 10° SE 16:47:04 40° ENE 16:51:46 10° N
Cosmos 1939 Rocket 2.9 16:51:39 10° S 16:55:30 76° WSW 16:59:27 10° NNW
Shenzhou-11 Module 3.7 16:54:08 10° WNW 16:55:44 24° NW 16:55:44 24° NW
Meteor 2-10 Rocket 3.9 16:59:45 10° NNW 17:04:57 62° W 17:09:57 10° S
YAOGAN 1 3.8 17:01:28 10° S 17:05:33 42° W 17:09:41 10° NNW
Cosmos 1821 Rocket 4.1 16:59:34 10° SSE 17:05:43 52° E 17:08:06 35° NE
H-2A R/B 4.3 17:03:49 10° SSW 17:06:00 14° S 17:09:47 10° SE
DMSP B5D2-7 4.5 17:07:04 10° SSE 17:12:29 77° ENE 17:17:55 10° N
Cosmos 2251 Rocket 3.4 17:14:51 10° NNW 17:20:11 86° ENE 17:21:19 57° SSE
CZ-4 R/B 4.3 17:24:32 10° SW 17:27:09 17° W 17:29:49 10° NW
ISS -0.8 17:27:23 10° WNW 17:28:18 13° NW 17:28:18 13° NW
Atlas Centaur 2 2.9 17:27:01 10° WSW 17:31:40 41° S 17:31:40 41° S
Cosmos 44 Rocket 4.4 17:30:47 10° SSW 17:33:34 34° SSW 17:33:34 34° SSW
DELTA 2 R/B (1) 3.8 17:31:27 10° WNW 17:36:26 64° NW 17:36:26 64° NW
ADEOS Rocket 4.1 17:39:59 10° N 17:46:25 51° WNW 17:53:28 10° SW
SL-16 R/B 3.4 17:56:41 10° NW 18:01:53 38° WSW 18:03:45 30° SW
